Location: Alfortville
(48.8058°N, 2.4204°E)
Time: 11:12:21
(UTC+00:00)

USA 229 DEB - Visible Passes

Search period start: 29 May 2022 00:00
Search period end: 08 June 2022 00:00
Orbit: 934 x 1278 km, 63.4° (Epoch: 24 May)

Date Brightness Start Highest point End Pass type
(mag) Time Alt. Az. Time Alt. Az. Time Alt. Az.
29 May 4.5 00:39:35 10° NW 00:46:21 40° WSW 00:49:43 27° SSW visible
29 May 5.6 20:12:05 10° NW 20:17:49 26° NNE 20:23:55 10° ENE visible
29 May 4.6 22:03:31 10° NW 22:10:30 50° NE 22:17:58 10° ESE visible
29 May 4.1 23:54:32 10° NW 00:01:43 57° WSW 00:05:45 29° S visible
30 May 5.6 01:48:13 10° WNW 01:51:23 13° WSW 01:53:08 12° WSW visible
30 May 5.0 21:18:41 10° NW 21:25:20 39° NNE 21:32:25 10° E visible
30 May 3.9 23:09:38 10° NW 23:16:58 80° SW 23:21:51 26° SSE visible
31 May 5.2 01:01:47 10° WNW 01:07:06 21° WSW 01:09:15 19° SW visible
31 May 5.3 20:33:46 10° NW 20:40:02 32° NNE 20:46:43 10° E visible
31 May 4.0 22:24:47 10° NW 22:32:06 77° NE 22:38:02 19° SE visible
01 Jun 4.8 00:16:17 10° NW 00:22:39 32° WSW 00:25:26 25° SSW visible
01 Jun 4.4 21:39:59 10° NW 21:47:07 58° NE 21:54:17 12° ESE visible
01 Jun 4.4 23:31:07 10° NW 23:38:06 46° WSW 23:41:42 29° S visible
02 Jun 4.7 20:55:10 10° NW 21:02:01 45° NE 21:09:21 10° ESE visible
02 Jun 4.0 22:46:08 10° NW 22:53:24 66° SW 22:58:00 26° SSE visible
03 Jun 5.5 00:39:01 10° WNW 00:43:16 16° WSW 00:45:25 14° SW visible
03 Jun 3.9 22:01:16 10° NW 22:08:37 89° SW 22:14:22 20° SE visible
03 Jun 5.2 23:53:06 10° WNW 23:58:54 25° WSW 00:01:46 20° SW visible
04 Jun 4.1 21:16:26 10° NW 21:23:42 69° NE 21:30:47 13° SE visible
04 Jun 4.7 23:07:45 10° NW 23:14:25 37° WSW 23:18:11 24° SSW visible
05 Jun 4.5 20:31:37 10° NW 20:38:40 52° NE 20:46:12 10° ESE visible
05 Jun 4.3 22:22:41 10° NW 22:29:48 53° WSW 22:34:40 23° S visible
06 Jun 5.8 00:16:57 10° W 00:19:23 12° WSW 00:21:50 10° WSW visible
06 Jun 4.0 21:37:45 10° NW 21:45:05 75° SW 21:51:10 18° SSE visible
06 Jun 5.5 23:30:06 10° WNW 23:35:07 19° WSW 23:38:35 14° SW visible
07 Jun 4.0 20:52:54 10° NW 21:00:14 81° NE 21:07:43 12° SE visible
07 Jun 5.1 22:44:29 10° WNW 22:50:41 29° WSW 22:55:09 17° SSW visible
